Погода в Введенском

Россия / Орловская область     52°16′37″N   37°24′44″E
темп.,
°C
ветер,
м/с
пор.,
м/с
влажн.,
%
обл.,
%
осадки,
мм/ч
давл.,
гПа
погр.,
м
17 апреля, сб
сб1700:00+8ююв22740 0.0 101839
03:00+6вюв117729 0.0 101810
06:00+7юз4677100 0.1 1019201
09:00+6зюз3491100 2.2 1019290
12:00+7зсз3385100 4.1 1018461
15:00+8зюз1278100 4.1 1018569
18:00+9юз2472100 0.0 1017616
21:00+6зюз018735 0.4 101810
18 апреля, вс
вс1800:00+5ю11905 0.0 101817
03:00+4юз239270 0.0 101847
06:00+5зюз228967 0.0 101853
09:00+7ююв227586 0.3 1019348
12:00+10ю3355100 0.3 10181363
15:00+11ююз3451100 0.9 10181520
18:00+8ююз5576100 0.2 1019506
21:00+6ю1387100 0.4 1019173
19 апреля, пн
пн1900:00+6ююв2591100 3.4 1019729
03:00+6вюв4793100 6.5 1018450
06:00+6в3694100 4.1 1018460
09:00+7вюв3892100 5.9 1019484
12:00+9вюв3575100 0.5 1018600
15:00+11в5668100 2.2 1017989
18:00+11в6975100 1.6 1017680
21:00+7в71094100 5.0 1019604
20 апреля, вт
вт2000:00+5всв61093100 6.1 1019647
03:00+5в61192100 6.1 1018518
06:00+5всв61195100 0.0 1017541
09:00+6всв81284100 0.0 1015714
12:00+7всв81487100 0.0 1012721
15:00+6всв91693100 2.8 1007802
18:00+5всв111994100 13.6 10021031
21:00+9вюв101795100 23.4 996691
21 апреля, ср
ср2100:00+10ююв7159143 1.4 997582
03:00+9ююв81587100 2.1 9971196
06:00+8ююв81393100 0.8 997970
09:00+3ююз81396100 2.2 1001880
12:00+3юз101596100 0.3 10051029
15:00+5юз91585100 0.3 10101257
18:00+7юз51181100 0.0 1014930
21:00+6ююз51085100 0.1 1017401